FW9472 Weather Reports


Display with metric or nautical units.
time (UTC)temp
F
wind
direction
speed
MPH
gust
MPH
rain 1hr
in
rain 24hr
in
rain mn
in
humidity
%
barometer
mb
20260906051537 73 0 0.0 2.0 0.00 0.03 0.00 91 1013.3
20260906050036 73 282 1.0 6.0 0.00 0.03 0.00 92 1013.4
20260906044535 73 265 0.0 3.0 0.00 0.03 0.00 92 1013.3
20260906043037 73 0 0.0 2.0 0.00 0.03 0.00 92 1013.1
20260906041535 73 0 0.0 4.0 0.00 0.03 0.00 92 1013.2
20260906040036 73 264 2.0 3.0 0.00 0.03 0.00 92 1013.3
20260906034551 73 265 2.0 6.0 0.00 0.03 0.03 92 1013.6
20260906033040 74 327 0.0 4.0 0.00 0.03 0.03 92 1013.6
20260906031537 74 325 2.0 5.0 0.00 0.03 0.03 92 1013.3
20260906030036 73 283 1.0 3.0 0.00 0.03 0.03 92 1013.3
20260906024536 73 280 1.0 4.0 0.00 0.03 0.03 91 1013.4
20260906023036 74 0 0.0 0.0 0.00 0.03 0.03 91 1013.5
20260906021542 74 0 0.0 0.0 0.00 0.03 0.03 91 1013.3
20260906020036 74 0 0.0 2.0 0.00 0.03 0.03 90 1013.2
20260906014536 74 0 0.0 0.0 0.00 0.03 0.03 90 1013.0
20260906013035 75 0 0.0 0.0 0.00 0.03 0.03 90 1012.7
20260906011533 75 0 0.0 2.0 0.00 0.03 0.03 89 1012.8
20260906010053 75 244 0.0 2.0 0.00 0.03 0.03 88 1012.7
20260906004541 75 0 0.0 3.0 0.00 0.03 0.03 88 1012.6
20260906003036 76 0 0.0 1.0 0.00 0.03 0.03 87 1012.4
20260906001551 76 0 0.0 1.0 0.00 0.03 0.03 86 1012.5
20260906000036 77 0 0.0 4.0 0.00 0.03 0.03 85 1012.6
20260905234538 77 254 3.0 6.0 0.00 0.03 0.03 84 1012.2
20260905233035 78 255 4.0 5.0 0.00 0.03 0.03 81 1012.0
20260905231536 79 72 0.0 3.0 0.00 0.03 0.03 79 1011.7
20260905230038 79 0 0.0 3.0 0.00 0.03 0.03 79 1012.0
20260905224536 78 291 1.0 3.0 0.00 0.03 0.03 81 1012.2
20260905223047 78 0 0.0 1.0 0.00 0.03 0.03 81 1012.2
20260905221543 77 0 0.0 2.0 0.00 0.03 0.03 81 1012.1
20260905220038 77 28 0.0 2.0 0.00 0.03 0.03 82 1011.9
20260905214544 77 0 0.0 2.0 0.00 0.03 0.03 82 1012.1
20260905213038 77 0 0.0 2.0 0.00 0.03 0.03 82 1012.5
20260905211535 76 319 0.0 5.0 0.00 0.03 0.03 82 1012.6
20260905210045 76 327 3.0 8.0 0.00 0.03 0.03 82 1012.7
20260905204536 75 333 3.0 6.0 0.00 0.03 0.03 84 1012.7
20260905203037 75 309 3.0 8.0 0.00 0.03 0.03 86 1012.7
20260905201537 74 297 3.0 9.0 0.00 0.03 0.03 88 1012.8
20260905200106 75 279 4.0 8.0 0.01 0.03 0.03 88 1013.1
20260905194537 74 0 0.0 6.0 0.03 0.03 0.03 87 1014.1
20260905193039 74 315 2.0 10.0 0.03 0.03 0.03 85 1013.5
20260905191535 75 277 3.0 12.0 0.03 0.03 0.03 82 1013.7
20260905190034 79 248 5.0 18.0 0.01 0.01 0.01 74 1013.7
20260905184545 84 308 8.0 17.0 0.00 0.00 0.00 66 1012.8
20260905183041 95 338 6.0 15.0 0.00 0.00 0.00 51 1012.7
20260905181545 96 94 3.0 8.0 0.00 0.00 0.00 47 1012.7
20260905180040 96 63 2.0 10.0 0.00 0.00 0.00 48 1012.8
20260905174535 95 115 2.0 8.0 0.00 0.00 0.00 51 1012.9
20260905173043 95 332 3.0 8.0 0.00 0.00 0.00 49 1013.2
20260905171538 94 60 3.0 8.0 0.00 0.00 0.00 52 1013.1
20260905170036 94 36 2.0 9.0 0.00 0.00 0.00 55 1013.5
20260905164537 94 310 3.0 5.0 0.00 0.00 0.00 53 1013.9
20260905163035 93 47 3.0 8.0 0.00 0.00 0.00 55 1014.1
20260905161537 92 296 3.0 8.0 0.00 0.00 0.00 58 1014.2
20260905160036 92 329 2.0 5.0 0.00 0.00 0.00 58 1014.2
20260905154536 90 266 2.0 7.0 0.00 0.00 0.00 62 1014.4
20260905153037 90 266 4.0 7.0 0.00 0.00 0.00 63 1014.5
20260905151541 89 292 1.0 3.0 0.00 0.00 0.00 65 1014.6
20260905150040 87 279 1.0 4.0 0.00 0.00 0.00 68 1014.7
20260905144543 86 286 2.0 7.0 0.00 0.00 0.00 72 1014.7
20260905143039 85 281 3.0 6.0 0.00 0.00 0.00 73 1014.7
20260905141536 84 276 2.0 7.0 0.00 0.00 0.00 77 1014.9
20260905140039 83 243 3.0 7.0 0.00 0.00 0.00 78 1015.0
20260905134539 82 275 1.0 3.0 0.00 0.00 0.00 80 1015.1
20260905133038 80 0 0.0 3.0 0.00 0.00 0.00 84 1015.1
20260905131550 78 0 1.0 3.0 0.00 0.00 0.00 87 1015.2
20260905130034 77 0 1.0 4.0 0.00 0.00 0.00 89 1015.1
20260905124536 76 264 0.0 3.0 0.00 0.00 0.00 91 1015.0
20260905123057 75 264 0.0 3.0 0.00 0.00 0.00 92 1014.9
20260905121535 74 0 0.0 2.0 0.00 0.00 0.00 92 1014.9
20260905120041 73 0 0.0 3.0 0.00 0.00 0.00 91 1014.9
20260905114537 73 0 0.0 1.0 0.00 0.00 0.00 91 1014.7
20260905113035 73 0 0.0 3.0 0.00 0.00 0.00 91 1014.5
20260905111536 73 265 1.0 3.0 0.00 0.00 0.00 91 1014.3
20260905110038 73 0 0.0 3.0 0.00 0.00 0.00 90 1014.1
20260905104535 73 242 0.0 2.0 0.00 0.00 0.00 90 1014.0
20260905103042 74 0 0.0 0.0 0.00 0.00 0.00 90 1014.0
20260905101607 74 0 0.0 0.0 0.00 0.00 0.00 89 1013.7
20260905100051 74 0 0.0 1.0 0.00 0.00 0.00 89 1013.8
20260905094536 74 0 0.0 2.0 0.00 0.00 0.00 89 1013.6
20260905093034 74 0 0.0 0.0 0.00 0.00 0.00 89 1013.7
20260905091542 74 0 0.0 0.0 0.00 0.00 0.00 89 1013.8
20260905090038 75 0 0.0 0.0 0.00 0.00 0.00 88 1013.7
20260905084534 75 0 0.0 0.0 0.00 0.00 0.00 88 1013.9
20260905083033 75 0 0.0 0.0 0.00 0.00 0.00 88 1014.0
20260905081537 75 0 0.0 0.0 0.00 0.00 0.00 87 1014.1
20260905074536 76 0 0.0 0.0 0.00 0.00 0.00 87 1014.3
20260905073036 76 0 0.0 0.0 0.00 0.00 0.00 86 1014.3
20260905071537 76 0 0.0 0.0 0.00 0.00 0.00 86 1014.4
20260905070048 77 0 0.0 0.0 0.00 0.00 0.00 85 1014.4
20260905064542 77 0 0.0 0.0 0.00 0.00 0.00 85 1014.4
20260905063038 78 0 0.0 0.0 0.00 0.00 0.00 84 1014.6
20260905061540 78 0 0.0 0.0 0.00 0.00 0.00 84 1014.7
20260905060047 79 0 0.0 0.0 0.00 0.00 0.00 83 1014.9
20260905054538 79 0 0.0 3.0 0.00 0.00 0.00 82 1015.1
20260905053037 80 0 0.0 3.0 0.00 0.00 0.00 78 1014.9